TimeCDT,TemperatureF,Dew PointF,Humidity,Sea Level PressureIn,VisibilityMPH,Wind Direction,Wind SpeedMPH,Gust SpeedMPH,PrecipitationIn,Events,Conditions,WindDirDegrees,DateUTC
12:53 AM,48.9,42.1,77,29.82,10.0,East,5.8,-,N/A,,Clear,100,2012-10-21 05:53:00
1:53 AM,48.0,42.1,80,29.81,10.0,East,4.6,-,N/A,,Clear,100,2012-10-21 06:53:00
2:53 AM,48.0,42.1,80,29.80,10.0,ESE,6.9,-,N/A,,Clear,110,2012-10-21 07:53:00
3:53 AM,48.0,42.1,80,29.80,10.0,ESE,4.6,-,N/A,,Clear,120,2012-10-21 08:53:00
4:53 AM,48.0,42.1,80,29.79,10.0,SE,6.9,-,N/A,,Clear,130,2012-10-21 09:53:00
5:53 AM,48.0,42.1,80,29.81,10.0,SSE,8.1,-,N/A,,Clear,150,2012-10-21 10:53:00
6:53 AM,48.0,42.1,80,29.81,10.0,SSE,6.9,-,N/A,,Clear,150,2012-10-21 11:53:00
7:53 AM,46.9,42.1,83,29.82,10.0,SSE,6.9,-,N/A,,Clear,150,2012-10-21 12:53:00
8:53 AM,51.1,44.1,77,29.83,10.0,SSE,6.9,-,N/A,,Clear,160,2012-10-21 13:53:00
9:53 AM,55.9,46.0,69,29.86,10.0,SSE,8.1,-,N/A,,Clear,150,2012-10-21 14:53:00
10:53 AM,62.1,50.0,65,29.85,10.0,SSE,8.1,-,N/A,,Clear,150,2012-10-21 15:53:00
11:53 AM,66.9,54.0,63,29.85,10.0,South,8.1,-,N/A,,Clear,180,2012-10-21 16:53:00
12:53 PM,71.1,55.9,59,29.82,10.0,SSE,6.9,-,N/A,,Clear,150,2012-10-21 17:53:00
1:53 PM,75.0,59.0,57,29.79,10.0,SSE,9.2,17.3,N/A,,Clear,150,2012-10-21 18:53:00
2:53 PM,77.0,60.1,56,29.77,10.0,SSE,11.5,24.2,N/A,,Clear,160,2012-10-21 19:53:00
3:53 PM,78.1,61.0,56,29.77,10.0,SSE,15.0,24.2,N/A,,Clear,150,2012-10-21 20:53:00
4:53 PM,77.0,62.1,60,29.76,10.0,SSE,10.4,20.7,N/A,,Partly Cloudy,160,2012-10-21 21:53:00
5:53 PM,75.0,62.1,64,29.78,10.0,SSE,11.5,17.3,N/A,,Overcast,160,2012-10-21 22:53:00
6:53 PM,73.9,62.1,66,29.79,10.0,South,9.2,17.3,N/A,,Overcast,170,2012-10-21 23:53:00
7:53 PM,73.0,62.1,68,29.81,10.0,SSE,8.1,-,N/A,,Overcast,160,2012-10-22 00:53:00
8:53 PM,72.0,62.1,71,29.81,10.0,SSE,8.1,-,N/A,,Overcast,150,2012-10-22 01:53:00
9:53 PM,71.1,61.0,70,29.82,10.0,SE,8.1,-,N/A,,Overcast,140,2012-10-22 02:53:00
10:53 PM,71.1,61.0,70,29.82,10.0,SSE,9.2,-,N/A,,Overcast,160,2012-10-22 03:53:00
11:53 PM,71.1,61.0,70,29.81,10.0,SSE,5.8,-,N/A,,Overcast,160,2012-10-22 04:53:00